Retour au catalogue

COSMOS 1249 FUEL CORE

ActifLEO
NORAD 12551·DEBRIS·🇷🇺 Russia

Lancé Mar 5, 1981 depuis Baikonur Cosmodrome

Loading…

Prochains Passages (prochaines 24 heures)

TLE

FraisSource: Space-Track

Époque: Sep 14, 2026, 05:30 UTC

1 12551U 81021C   26257.22919370 -.00000074  00000-0  13194-4 0  9995
2 12551  64.9683 339.5239 0044563 196.1783 163.7861 13.90551625313852

Suivez COSMOS 1249 FUEL CORE en temps réel avec AllMySat

Download on the App Store